Location: Chena
(64.8152°N, 147.9227°W)
Time: 13:11:03
(UTC+00:00)

N. Korean satellite - Pass Details

Date: 25 January 2021
Orbit: 451 x 503 km, 97.2° (Epoch: 28 February)

Event Time Altitude Azimuth Distance (km) Brightness Sun altitude
Rises 15:38:09 0° 18° (NNE) 2,543 10.4 -19.7°
Reaches altitude 10° 15:40:15 10° 21° (NNE) 1,650 9.5 -19.5°
Maximum altitude 15:43:47 65° 105° (ESE) 522 6.9 -19.1°
Drops below altitude 10° 15:47:13 10° 188° (S) 1,612 9.2 -18.7°
Sets 15:49:15 0° 191° (S) 2,476 10.1 -18.5°
